Time,TemperatureF,DewpointF,PressureIn,WindDirection,WindDirectionDegrees,WindSpeedMPH,WindSpeedGustMPH,Humidity,HourlyPrecipIn,Conditions,Clouds,dailyrainin,SoftwareType,DateUTC
2013-12-23 00:09:00,70.3,63.1,29.97,SE,135,0.0,-999.0,78,-99.99,,,0.00,Acu-Link.com,2013-12-23 05:09:00,
2013-12-23 00:24:00,70.0,62.8,29.97,South,180,0.0,-999.0,78,-99.99,,,0.00,Acu-Link.com,2013-12-23 05:24:00,
2013-12-23 00:39:00,69.6,62.4,29.97,West,270,0.0,-999.0,78,-99.99,,,0.00,Acu-Link.com,2013-12-23 05:39:00,
2013-12-23 00:55:00,69.6,62.4,29.97,SSE,157,3.7,-999.0,78,-99.99,,,0.00,Acu-Link.com,2013-12-23 05:55:00,
2013-12-23 01:10:00,69.1,61.9,29.97,WSW,247,0.0,-999.0,78,-99.99,,,0.00,Acu-Link.com,2013-12-23 06:10:00,
2013-12-23 01:25:00,68.9,61.7,29.97,ESE,112,0.0,-999.0,78,-99.99,,,0.00,Acu-Link.com,2013-12-23 06:25:00,
2013-12-23 01:41:00,68.7,61.6,29.96,ESE,112,0.0,-999.0,78,-99.99,,,0.00,Acu-Link.com,2013-12-23 06:41:00,
2013-12-23 01:56:00,68.7,61.6,29.96,WSW,247,0.0,-999.0,78,-99.99,,,0.00,Acu-Link.com,2013-12-23 06:56:00,
2013-12-23 02:11:00,68.5,61.4,29.96,SW,225,0.0,-999.0,78,-99.99,,,0.00,Acu-Link.com,2013-12-23 07:11:00,
2013-12-23 02:27:00,68.2,61.1,29.96,SE,135,0.0,-999.0,78,-99.99,,,0.00,Acu-Link.com,2013-12-23 07:27:00,
2013-12-23 02:42:00,68.4,61.3,29.95,East,90,0.0,-999.0,78,-99.99,,,0.00,Acu-Link.com,2013-12-23 07:42:00,
2013-12-23 02:57:00,68.9,61.7,29.94,ESE,112,0.0,-999.0,78,-99.99,,,0.00,Acu-Link.com,2013-12-23 07:57:00,
2013-12-23 03:13:00,68.5,61.4,29.94,West,270,0.0,-999.0,78,-99.99,,,0.00,Acu-Link.com,2013-12-23 08:13:00,
2013-12-23 03:28:00,68.9,61.7,29.94,West,270,0.0,-999.0,78,-99.99,,,0.00,Acu-Link.com,2013-12-23 08:28:00,
2013-12-23 03:43:00,68.9,61.7,29.95,West,270,0.0,-999.0,78,-99.99,,,0.00,Acu-Link.com,2013-12-23 08:43:00,
2013-12-23 03:59:00,69.1,61.9,29.95,South,180,1.1,-999.0,78,-99.99,,,0.00,Acu-Link.com,2013-12-23 08:59:00,
2013-12-23 04:29:00,69.8,62.6,29.95,ESE,112,0.0,-999.0,78,-99.99,,,0.00,Acu-Link.com,2013-12-23 09:29:00,
2013-12-23 04:45:00,69.8,62.6,29.95,ESE,112,1.7,-999.0,78,-99.99,,,0.00,Acu-Link.com,2013-12-23 09:45:00,
2013-12-23 05:00:00,69.8,62.6,29.96,SE,135,0.0,-999.0,78,-99.99,,,0.00,Acu-Link.com,2013-12-23 10:00:00,
2013-12-23 05:15:00,69.6,62.4,29.96,East,90,1.7,-999.0,78,-99.99,,,0.00,Acu-Link.com,2013-12-23 10:15:00,
2013-12-23 05:30:00,69.6,62.4,29.96,SE,135,0.0,-999.0,78,-99.99,,,0.00,Acu-Link.com,2013-12-23 10:30:00,
2013-12-23 05:46:00,69.6,62.4,29.96,ESE,112,2.7,-999.0,78,-99.99,,,0.00,Acu-Link.com,2013-12-23 10:46:00,
2013-12-23 06:01:00,69.6,62.4,29.96,ESE,112,2.2,-999.0,78,-99.99,,,0.00,Acu-Link.com,2013-12-23 11:01:00,
2013-12-23 06:16:00,69.6,62.4,29.96,ESE,112,0.0,-999.0,78,-99.99,,,0.00,Acu-Link.com,2013-12-23 11:16:00,
2013-12-23 06:32:00,69.6,62.4,29.96,SSE,157,1.7,-999.0,78,-99.99,,,0.00,Acu-Link.com,2013-12-23 11:32:00,
2013-12-23 06:47:00,69.6,62.4,29.97,ESE,112,2.7,-999.0,78,-99.99,,,0.00,Acu-Link.com,2013-12-23 11:47:00,
2013-12-23 07:02:00,69.8,62.6,29.97,SSE,157,3.7,-999.0,78,-99.99,,,0.00,Acu-Link.com,2013-12-23 12:02:00,
2013-12-23 07:18:00,70.0,62.8,29.97,South,180,0.0,-999.0,78,-99.99,,,0.00,Acu-Link.com,2013-12-23 12:18:00,
2013-12-23 07:33:00,70.0,62.8,29.98,South,180,1.7,-999.0,78,-99.99,,,0.00,Acu-Link.com,2013-12-23 12:33:00,
2013-12-23 07:48:00,70.2,63.0,29.98,SSE,157,2.2,-999.0,78,-99.99,,,0.00,Acu-Link.com,2013-12-23 12:48:00,
2013-12-23 08:03:00,70.5,63.3,29.98,SE,135,0.0,-999.0,78,-99.99,,,0.00,Acu-Link.com,2013-12-23 13:03:00,
2013-12-23 08:18:00,71.1,63.9,29.99,SW,225,2.7,-999.0,78,-99.99,,,0.00,Acu-Link.com,2013-12-23 13:18:00,
2013-12-23 08:34:00,71.6,64.4,30.00,SE,135,2.7,-999.0,78,-99.99,,,0.00,Acu-Link.com,2013-12-23 13:34:00,
2013-12-23 08:49:00,72.9,65.6,29.99,ESE,112,1.7,-999.0,78,-99.99,,,0.00,Acu-Link.com,2013-12-23 13:49:00,
2013-12-23 09:04:00,74.7,67.4,30.00,ESE,112,3.2,-999.0,78,-99.99,,,0.00,Acu-Link.com,2013-12-23 14:04:00,
2013-12-23 09:20:00,75.0,67.7,29.99,SSE,157,3.2,-999.0,78,-99.99,,,0.00,Acu-Link.com,2013-12-23 14:20:00,
2013-12-23 09:35:00,76.6,69.2,30.00,ESE,112,4.7,-999.0,78,-99.99,,,0.00,Acu-Link.com,2013-12-23 14:35:00,
2013-12-23 09:50:00,76.8,69.4,30.01,SSW,202,3.2,-999.0,78,-99.99,,,0.00,Acu-Link.com,2013-12-23 14:50:00,
2013-12-23 10:05:00,76.8,69.4,30.00,SE,135,4.2,-999.0,78,-99.99,,,0.00,Acu-Link.com,2013-12-23 15:05:00,
2013-12-23 10:20:00,79.0,71.5,30.00,SSE,157,6.8,-999.0,78,-99.99,,,0.00,Acu-Link.com,2013-12-23 15:20:00,
2013-12-23 10:35:00,79.3,71.8,30.00,South,180,2.2,-999.0,78,-99.99,,,0.00,Acu-Link.com,2013-12-23 15:35:00,
2013-12-23 10:51:00,79.0,71.5,30.00,SSW,202,3.7,-999.0,78,-99.99,,,0.00,Acu-Link.com,2013-12-23 15:51:00,
2013-12-23 11:06:00,80.8,73.3,30.00,SSW,202,3.2,-999.0,78,-99.99,,,0.00,Acu-Link.com,2013-12-23 16:06:00,
2013-12-23 11:21:00,81.5,74.0,29.99,South,180,4.7,-999.0,78,-99.99,,,0.00,Acu-Link.com,2013-12-23 16:21:00,
2013-12-23 11:37:00,80.6,73.1,29.99,ESE,112,2.7,-999.0,78,-99.99,,,0.00,Acu-Link.com,2013-12-23 16:37:00,
2013-12-23 11:52:00,82.2,74.6,29.98,East,90,4.7,-999.0,78,-99.99,,,0.00,Acu-Link.com,2013-12-23 16:52:00,
2013-12-23 12:07:00,81.9,74.3,29.97,SSW,202,2.7,-999.0,78,-99.99,,,0.00,Acu-Link.com,2013-12-23 17:07:00,
2013-12-23 12:22:00,82.8,75.2,29.97,South,180,3.2,-999.0,78,-99.99,,,0.00,Acu-Link.com,2013-12-23 17:22:00,
2013-12-23 12:37:00,82.8,75.2,29.96,South,180,4.7,-999.0,78,-99.99,,,0.00,Acu-Link.com,2013-12-23 17:37:00,
2013-12-23 12:53:00,83.1,75.5,29.94,SW,225,3.2,-999.0,78,-99.99,,,0.00,Acu-Link.com,2013-12-23 17:53:00,
2013-12-23 13:09:00,83.3,75.7,29.94,SSW,202,2.2,-999.0,78,-99.99,,,0.00,Acu-Link.com,2013-12-23 18:09:00,
2013-12-23 13:24:00,83.8,76.2,29.94,SSE,157,4.2,-999.0,78,-99.99,,,0.00,Acu-Link.com,2013-12-23 18:24:00,
2013-12-23 13:39:00,84.2,76.6,29.93,ESE,112,9.4,-999.0,78,-99.99,,,0.00,Acu-Link.com,2013-12-23 18:39:00,
2013-12-23 13:55:00,84.4,76.8,29.92,South,180,2.2,-999.0,78,-99.99,,,0.00,Acu-Link.com,2013-12-23 18:55:00,
2013-12-23 14:10:00,84.4,76.8,29.92,ESE,112,4.2,-999.0,78,-99.99,,,0.00,Acu-Link.com,2013-12-23 19:10:00,
2013-12-23 14:25:00,85.1,77.4,29.91,WSW,247,0.0,-999.0,78,-99.99,,,0.00,Acu-Link.com,2013-12-23 19:25:00,
2013-12-23 14:40:00,84.7,77.1,29.90,SE,135,1.7,-999.0,78,-99.99,,,0.00,Acu-Link.com,2013-12-23 19:40:00,
2013-12-23 14:55:00,84.2,76.6,29.91,SW,225,3.2,-999.0,78,-99.99,,,0.00,Acu-Link.com,2013-12-23 19:55:00,
2013-12-23 15:11:00,84.4,76.8,29.90,SW,225,4.2,-999.0,78,-99.99,,,0.00,Acu-Link.com,2013-12-23 20:11:00,
2013-12-23 15:26:00,84.2,76.6,29.91,SSE,157,2.2,-999.0,78,-99.99,,,0.00,Acu-Link.com,2013-12-23 20:26:00,
2013-12-23 15:41:00,84.0,76.4,29.90,West,270,1.7,-999.0,78,-99.99,,,0.00,Acu-Link.com,2013-12-23 20:41:00,
2013-12-23 15:57:00,83.8,76.2,29.91,SSW,202,2.7,-999.0,78,-99.99,,,0.00,Acu-Link.com,2013-12-23 20:57:00,
2013-12-23 16:12:00,83.3,75.7,29.91,SW,225,2.2,-999.0,78,-99.99,,,0.00,Acu-Link.com,2013-12-23 21:12:00,
2013-12-23 16:27:00,83.1,75.5,29.90,SW,225,0.0,-999.0,78,-99.99,,,0.00,Acu-Link.com,2013-12-23 21:27:00,
2013-12-23 16:43:00,82.0,74.4,29.90,SSW,202,0.0,-999.0,78,-99.99,,,0.00,Acu-Link.com,2013-12-23 21:43:00,
2013-12-23 16:58:00,81.0,73.5,29.91,SSW,202,1.7,-999.0,78,-99.99,,,0.00,Acu-Link.com,2013-12-23 21:58:00,
2013-12-23 17:13:00,80.1,72.6,29.92,SW,225,1.1,-999.0,78,-99.99,,,0.00,Acu-Link.com,2013-12-23 22:13:00,
2013-12-23 17:28:00,79.2,71.7,29.92,SW,225,0.0,-999.0,78,-99.99,,,0.00,Acu-Link.com,2013-12-23 22:28:00,
2013-12-23 17:44:00,78.3,70.9,29.93,SW,225,0.0,-999.0,78,-99.99,,,0.00,Acu-Link.com,2013-12-23 22:44:00,
2013-12-23 17:59:00,77.2,69.8,29.93,SW,225,0.0,-999.0,78,-99.99,,,0.00,Acu-Link.com,2013-12-23 22:59:00,
2013-12-23 18:14:00,76.3,68.9,29.93,SSW,202,0.0,-999.0,78,-99.99,,,0.00,Acu-Link.com,2013-12-23 23:14:00,
2013-12-23 18:30:00,75.4,68.0,29.94,West,270,0.0,-999.0,78,-99.99,,,0.00,Acu-Link.com,2013-12-23 23:30:00,
2013-12-23 18:45:00,75.2,67.9,29.94,SW,225,0.0,-999.0,78,-99.99,,,0.00,Acu-Link.com,2013-12-23 23:45:00,
2013-12-23 19:00:00,74.7,67.4,29.95,WSW,247,0.0,-999.0,78,-99.99,,,0.00,Acu-Link.com,2013-12-24 00:00:00,
2013-12-23 19:16:00,74.1,66.8,29.94,SW,225,0.0,-999.0,78,-99.99,,,0.00,Acu-Link.com,2013-12-24 00:16:00,
2013-12-23 19:31:00,73.9,66.6,29.95,West,270,0.0,-999.0,78,-99.99,,,0.00,Acu-Link.com,2013-12-24 00:31:00,
2013-12-23 19:46:00,73.9,66.6,29.96,West,270,0.0,-999.0,78,-99.99,,,0.00,Acu-Link.com,2013-12-24 00:46:00,
2013-12-23 20:01:00,73.6,66.3,29.96,West,270,0.0,-999.0,78,-99.99,,,0.00,Acu-Link.com,2013-12-24 01:01:00,
2013-12-23 20:17:00,72.9,65.6,29.96,West,270,0.0,-999.0,78,-99.99,,,0.00,Acu-Link.com,2013-12-24 01:17:00,
2013-12-23 20:32:00,72.3,65.0,29.97,ESE,112,0.0,-999.0,78,-99.99,,,0.00,Acu-Link.com,2013-12-24 01:32:00,
2013-12-23 20:47:00,71.8,64.6,29.96,West,270,0.0,-999.0,78,-99.99,,,0.00,Acu-Link.com,2013-12-24 01:47:00,
2013-12-23 21:03:00,71.2,64.0,29.96,West,270,0.0,-999.0,78,-99.99,,,0.00,Acu-Link.com,2013-12-24 02:03:00,
2013-12-23 21:18:00,70.7,63.5,29.96,West,270,0.0,-999.0,78,-99.99,,,0.00,Acu-Link.com,2013-12-24 02:18:00,
2013-12-23 21:33:00,70.3,63.1,29.97,West,270,0.0,-999.0,78,-99.99,,,0.00,Acu-Link.com,2013-12-24 02:33:00,
2013-12-23 21:49:00,69.8,62.6,29.96,West,270,0.0,-999.0,78,-99.99,,,0.00,Acu-Link.com,2013-12-24 02:49:00,
2013-12-23 22:04:00,70.9,63.7,29.96,West,270,0.0,-999.0,78,-99.99,,,0.00,Acu-Link.com,2013-12-24 03:04:00,
2013-12-23 22:19:00,71.2,64.0,29.96,West,270,0.0,-999.0,78,-99.99,,,0.00,Acu-Link.com,2013-12-24 03:19:00,
2013-12-23 22:34:00,71.1,63.9,29.97,WSW,247,0.0,-999.0,78,-99.99,,,0.00,Acu-Link.com,2013-12-24 03:34:00,
2013-12-23 22:50:00,71.2,64.0,29.97,SSW,202,0.0,-999.0,78,-99.99,,,0.00,Acu-Link.com,2013-12-24 03:50:00,
2013-12-23 23:05:00,71.8,64.6,29.96,South,180,2.2,-999.0,78,-99.99,,,0.00,Acu-Link.com,2013-12-24 04:05:00,
2013-12-23 23:20:00,72.0,64.8,29.96,SSE,157,1.7,-999.0,78,-99.99,,,0.00,Acu-Link.com,2013-12-24 04:20:00,
2013-12-23 23:36:00,72.3,65.0,29.96,SSW,202,3.2,-999.0,78,-99.99,,,0.00,Acu-Link.com,2013-12-24 04:36:00,
2013-12-23 23:51:00,72.5,65.2,29.95,South,180,3.2,-999.0,78,-99.99,,,0.00,Acu-Link.com,2013-12-24 04:51:00,